Simultaneous Nadir Overpasses (SNOs) Predictions

Prediction of SNOs between AQUA and NOAA-19 Satellite Orbit:

Table of predicted SNOs for the next 14.0 days since TLE Epoch: 10/26/2019
Index Date (AQUA) Time (AQUA) Lat,Lon (AQUA) SZA (AQUA ) Date (NOAA-19) Time (NOAA-19) Lat,Lon (NOAA-19) SZA (NOAA-19 ) Distance(km) Time Diff (sec)
1 10/26/2019 14:18:56 -80.18, 113.12 86.27 10/26/2019 14:18:41 -80.19, 113.17 86.26 1.51 15
2 10/26/2019 15:08:23 80.21, -79.49 93.79 10/26/2019 15:09:35 80.21, -79.33 93.75 3.02 72
3 10/28/2019 19:52:39 80.18,-150.28 94.47 10/28/2019 19:51:58 80.18,-150.23 94.49 1.13 41
4 10/28/2019 20:42:06 -80.18, 17.34 85.52 10/28/2019 20:43:03 -80.21, 17.37 85.51 2.92 57
5 10/31/2019 01:26:23 -80.19, -53.77 84.79 10/31/2019 01:25:27 -80.16, -53.83 84.79 2.96 56
6 10/31/2019 02:15:49 80.18, 113.90 95.22 10/31/2019 02:16:20 80.19, 113.94 95.22 1.47 31
7 11/02/2019 07:49:33 -80.19,-149.61 84.06 11/02/2019 07:49:49 -80.17,-149.68 84.07 2.53 16
8 11/04/2019 13:23:15 80.17, -52.82 96.60 11/04/2019 13:23:05 80.18, -52.81 96.62 1.33 10
9 11/06/2019 18:56:59 -80.18, 43.63 82.70 11/06/2019 18:56:33 -80.17, 43.81 82.72 3.55 26
10 11/06/2019 19:46:25 80.18,-148.72 97.31 11/06/2019 19:47:27 80.19,-148.66 97.30 1.54 62
11 11/09/2019 00:30:41 80.16, 140.36 97.93 11/09/2019 00:29:50 80.16, 140.42 97.94 1.17 51




NCC Satellite Simultaneous Nadir Overpasses (SNOs) Prediction Service
